• In Czech Republic
  • List of Countries
  • For 7 days
  • Water Temperature
  • Satellite Maps
  • Weather Map
  • Weather Widgets
  • user-avatar
    Login

    Hourly Weather Romanovo

    Today, 21 August, Tuesday

    Time Temperature Precipitation Wind Pressure Humidity
    00:00 +13°C° 0.2 mm 2 mps 742 mmHg 97%
    01:00 +13°C° 0.2 mm 2 mps 742 mmHg 97%
    02:00 +13°C° 0.2 mm 2 mps 741 mmHg 98%
    03:00 +13°C° 0.2 mm 2 mps 741 mmHg 98%
    04:00 +13°C° 0 mm 2 mps 741 mmHg 99%
    05:00 +13°C° 0.1 mm 1 mps 741 mmHg 98%
    06:00 +14°C° 0.1 mm 1 mps 741 mmHg 98%
    07:00 +14°C° 0.1 mm 1 mps 741 mmHg 98%
    08:00 +14°C° 0 mm 1 mps 741 mmHg 96%
    09:00 +15°C° 0 mm 1 mps 741 mmHg 95%
    10:00 +16°C° 0 mm 1 mps 740 mmHg 93%
    11:00 +16°C° 0.1 mm 1 mps 740 mmHg 91%
    12:00 +18°C° 0.1 mm 1 mps 740 mmHg 89%
    13:00 +18°C° 0.1 mm 1 mps 740 mmHg 86%
    14:00 +19°C° 0 mm 1 mps 740 mmHg 81%
    15:00 +20°C° 0 mm 1 mps 740 mmHg 77%
    16:00 +21°C° 0 mm 1 mps 739 mmHg 72%
    17:00 +20°C° 0 mm 1 mps 739 mmHg 76%
    18:00 +19°C° 0 mm 1 mps 739 mmHg 81%
    19:00 +18°C° 0 mm 1 mps 739 mmHg 85%
    20:00 +16°C° 0 mm 1 mps 739 mmHg 89%
    21:00 +15°C° 0 mm 1 mps 738 mmHg 93%
    22:00 +14°C° 0 mm 2 mps 738 mmHg 97%
    23:00 +13°C° 0 mm 2 mps 738 mmHg 97%

    Tomorrow, 22 August, Wednesday

    Time Temperature Precipitation Wind Pressure Humidity
    00:00 +13°C° 0 mm 2 mps 738 mmHg 97%
    01:00 +13°C° 0 mm 2 mps 737 mmHg 98%
    02:00 +13°C° 0 mm 2 mps 737 mmHg 98%
    03:00 +12°C° 0 mm 3 mps 736 mmHg 98%
    04:00 +13°C° 0 mm 3 mps 736 mmHg 98%
    05:00 +13°C° 0 mm 3 mps 736 mmHg 96%
    06:00 +14°C° 0 mm 4 mps 735 mmHg 94%
    07:00 +15°C° 0 mm 4 mps 735 mmHg 92%
    08:00 +17°C° 0.1 mm 4 mps 735 mmHg 89%
    09:00 +18°C° 0.1 mm 4 mps 734 mmHg 87%
    10:00 +19°C° 0.1 mm 4 mps 734 mmHg 84%
    11:00 +19°C° 0.4 mm 4 mps 734 mmHg 85%
    12:00 +19°C° 0.4 mm 4 mps 734 mmHg 86%
    13:00 +20°C° 0.4 mm 3 mps 734 mmHg 87%
    14:00 +18°C° 1.5 mm 3 mps 734 mmHg 90%
    15:00 +16°C° 1.5 mm 3 mps 734 mmHg 93%
    16:00 +13°C° 1.5 mm 3 mps 734 mmHg 96%
    17:00 +14°C° 0.5 mm 2 mps 734 mmHg 96%
    18:00 +13°C° 0.5 mm 2 mps 735 mmHg 96%
    19:00 +13°C° 0.5 mm 1 mps 735 mmHg 97%
    20:00 +12°C° 0 mm 1 mps 735 mmHg 97%
    21:00 +12°C° 0 mm 1 mps 735 mmHg 97%
    22:00 +11°C° 0 mm 1 mps 735 mmHg 97%
    23:00 +11°C° 0 mm 1 mps 735 mmHg 97%

    Day after tomorrow, 23 August, Thursday

    Time Temperature Precipitation Wind Pressure Humidity
    00:00 +11°C° 0 mm 1 mps 736 mmHg 97%
    01:00 +10°C° 0 mm 2 mps 736 mmHg 97%
    02:00 +9°C° 0 mm 2 mps 736 mmHg 97%
    03:00 +9°C° 0 mm 2 mps 736 mmHg 97%
    04:00 +8°C° 0 mm 2 mps 736 mmHg 98%
    05:00 +8°C° 0 mm 2 mps 736 mmHg 97%
    06:00 +8°C° 0 mm 2 mps 736 mmHg 97%
    07:00 +8°C° 0 mm 2 mps 737 mmHg 96%
    08:00 +8°C° 0.1 mm 2 mps 737 mmHg 95%
    09:00 +9°C° 0.1 mm 3 mps 737 mmHg 94%
    10:00 +9°C° 0.1 mm 3 mps 738 mmHg 93%
    11:00 +9°C° 0.1 mm 3 mps 738 mmHg 92%
    12:00 +9°C° 0.1 mm 3 mps 738 mmHg 91%
    13:00 +10°C° 0.1 mm 3 mps 739 mmHg 90%
    14:00 +10°C° 0.2 mm 3 mps 739 mmHg 91%
    15:00 +10°C° 0.2 mm 3 mps 739 mmHg 91%
    16:00 +10°C° 0.2 mm 4 mps 740 mmHg 91%
    17:00 +9°C° 0.1 mm 3 mps 740 mmHg 92%
    18:00 +9°C° 0.1 mm 3 mps 740 mmHg 92%
    19:00 +9°C° 0.1 mm 3 mps 741 mmHg 93%
    20:00 +9°C° 0 mm 3 mps 741 mmHg 93%
    21:00 +9°C° 0 mm 3 mps 741 mmHg 93%
    22:00 +8°C° 0 mm 3 mps 741 mmHg 94%
    23:00 +8°C° 0 mm 3 mps 741 mmHg 94%

    24 August, Friday

    Time Temperature Precipitation Wind Pressure Humidity
    00:00 +8°C° 0 mm 3 mps 741 mmHg 94%
    01:00 +8°C° 0 mm 3 mps 741 mmHg 94%
    02:00 +8°C° 0 mm 3 mps 741 mmHg 93%
    03:00 +8°C° 0 mm 3 mps 741 mmHg 93%
    04:00 +7°C° 0 mm 3 mps 741 mmHg 93%
    05:00 +7°C° 0 mm 4 mps 742 mmHg 92%
    06:00 +7°C° 0 mm 4 mps 742 mmHg 91%
    07:00 +7°C° 0 mm 4 mps 742 mmHg 90%
    08:00 +7°C° 0.1 mm 4 mps 742 mmHg 89%
    09:00 +8°C° 0.1 mm 4 mps 742 mmHg 87%
    10:00 +8°C° 0.1 mm 4 mps 742 mmHg 86%
    11:00 +11°C° 0 mm 4 mps 743 mmHg 80%
    12:00 +13°C° 0 mm 4 mps 743 mmHg 73%
    13:00 +15°C° 0 mm 4 mps 743 mmHg 66%
    14:00 +15°C° 0 mm 4 mps 743 mmHg 64%
    15:00 +17°C° 0 mm 4 mps 744 mmHg 61%
    16:00 +18°C° 0 mm 4 mps 744 mmHg 58%
    17:00 +17°C° 0 mm 3 mps 744 mmHg 64%
    18:00 +16°C° 0 mm 2 mps 744 mmHg 70%
    19:00 +15°C° 0 mm 2 mps 745 mmHg 76%
    20:00 +13°C° 0 mm 2 mps 745 mmHg 81%
    21:00 +12°C° 0 mm 2 mps 745 mmHg 85%
    22:00 +10°C° 0 mm 1 mps 746 mmHg 90%
    23:00 +10°C° 0 mm 1 mps 746 mmHg 91%

    25 August, Saturday

    Time Temperature Precipitation Wind Pressure Humidity
    00:00 +9°C° 0 mm 1 mps 746 mmHg 92%
    01:00 +9°C° 0 mm 1 mps 746 mmHg 92%
    02:00 +9°C° 0 mm 1 mps 747 mmHg 93%
    03:00 +8°C° 0 mm 1 mps 747 mmHg 93%
    04:00 +8°C° 0 mm 1 mps 747 mmHg 93%
    05:00 +9°C° 0 mm 1 mps 747 mmHg 89%
    06:00 +10°C° 0 mm 1 mps 748 mmHg 85%
    07:00 +11°C° 0 mm 1 mps 748 mmHg 81%
    08:00 +13°C° 0 mm 1 mps 748 mmHg 72%
    09:00 +15°C° 0 mm 2 mps 748 mmHg 63%
    10:00 +18°C° 0 mm 2 mps 748 mmHg 54%
    11:00 +19°C° 0 mm 2 mps 748 mmHg 50%
    12:00 +20°C° 0 mm 2 mps 748 mmHg 46%
    13:00 +21°C° 0 mm 2 mps 748 mmHg 42%
    14:00 +23°C° 0 mm 2 mps 748 mmHg 44%
    15:00 +23°C° 0 mm 2 mps 748 mmHg 46%
    16:00 +23°C° 0 mm 2 mps 748 mmHg 47%
    17:00 +21°C° 0 mm 2 mps 748 mmHg 56%
    18:00 +20°C° 0 mm 1 mps 748 mmHg 65%
    19:00 +18°C° 0 mm 1 mps 748 mmHg 74%
    20:00 +16°C° 0 mm 1 mps 748 mmHg 80%
    21:00 +15°C° 0 mm 1 mps 749 mmHg 85%
    22:00 +13°C° 0 mm 1 mps 749 mmHg 90%
    23:00 +12°C° 0 mm 0 mps 749 mmHg 91%

    26 August, Sunday

    Time Temperature Precipitation Wind Pressure Humidity
    00:00 +12°C° 0 mm 0 mps 749 mmHg 92%
    01:00 +11°C° 0 mm 0 mps 749 mmHg 93%
    02:00 +11°C° 0 mm 0 mps 749 mmHg 94%
    03:00 +11°C° 0 mm 0 mps 749 mmHg 94%
    04:00 +11°C° 0 mm 0 mps 750 mmHg 94%
    05:00 +12°C° 0 mm 0 mps 750 mmHg 92%
    06:00 +13°C° 0 mm 0 mps 750 mmHg 89%
    07:00 +14°C° 0 mm 0 mps 750 mmHg 87%
    08:00 +16°C° 0 mm 0 mps 750 mmHg 79%
    09:00 +19°C° 0 mm 0 mps 750 mmHg 70%
    10:00 +21°C° 0 mm 0 mps 750 mmHg 62%
    11:00 +22°C° 0 mm 0 mps 750 mmHg 58%
    12:00 +25°C° 0 mm 1 mps 750 mmHg 55%
    13:00 +26°C° 0 mm 1 mps 750 mmHg 51%
    14:00 +26°C° 0 mm 1 mps 750 mmHg 51%
    15:00 +26°C° 0 mm 1 mps 750 mmHg 52%
    16:00 +26°C° 0 mm 1 mps 749 mmHg 52%
    17:00 +24°C° 0 mm 1 mps 750 mmHg 60%
    18:00 +23°C° 0 mm 1 mps 750 mmHg 68%
    19:00 +21°C° 0 mm 1 mps 750 mmHg 76%
    20:00 +20°C° 0 mm 1 mps 750 mmHg 81%
    21:00 +17°C° 0 mm 0 mps 750 mmHg 86%
    22:00 +15°C° 0 mm 0 mps 750 mmHg 91%
    23:00 +15°C° 0 mm 0 mps 750 mmHg 92%
    Show more